Weather History for GMMX - February, 2013

Change the Weather History Date:

Wednesday, February 6, 2013

  Actual Average Record
Temperature  
Mean Temperature 56 °F -  
Max Temperature 71 °F 68 °F 77 °F (2004)
Min Temperature 42 °F 46 °F 35 °F (2012)
Degree Days  
Heating Degree Days 8    
Growing Degree Days 6 (Base 50)    
Moisture  
Dew Point 44 °F    
Average Humidity 66    
Maximum Humidity 93    
Minimum Humidity 26    
Precipitation  
Precipitation 0.00 in 0.05 in - ()
Sea Level Pressure  
Sea Level Pressure 30.27 in    
Wind  
Wind Speed 5 mph ()    
Max Wind Speed 10 mph    
Max Gust Speed -    
Visibility 5.8 miles    
Events      
Averages and records for this station are not official NWS values.
T = Trace of Precipitation, MM = Missing Value Source: Averaged Metar Reports

Daily Weather History Graph

Daily Weather History Graph

Search for Another Location

Airport or City:

Trip Planner

Search our weather history database for the weather conditions in past years. The results will help you decide how hot, cold, wet, or windy it might be!

Date:

Astronomy

Feb. 06, 2013 Rise Set
Actual Time 7:21 AM WET 6:11 PM WET
Civil Twilight 6:56 AM WET 6:36 PM WET
Nautical Twilight 6:27 AM WET 7:05 PM WET
Astronomical Twilight 5:58 AM WET 7:34 PM WET
Moon 3:44 AM WET (2/6) 2:22 PM WET (2/6)
Length of Visible Light 11h 40m
Length of Day
10h 49m
Waning Crescent, 19% of the Moon is Illuminated
Feb 6
Waning Crescent
Feb 10
New
Feb 17
First Quarter
Feb 25
Full
Mar 4
Last Quarter

Hourly Weather History & Observations

Time (WET) Temp. Windchill Dew Point Humidity Pressure Visibility Wind Dir Wind Speed Gust Speed Precip Events Conditions
12:00 AM 47 °F - 43 °F 80% 30.36 in 6 mi WSW 4.6 mph - -  
12:00 AM 48.2 °F - 42.8 °F 82% 30.33 in - WSW 3.5 mph - N/A   Clear
12:30 AM 46.4 °F 44.3 °F 42.8 °F 87% 30.33 in - WSW 4.6 mph - N/A   Clear
1:00 AM 46.4 °F 43.5 °F 44.6 °F 93% 30.33 in - SW 5.8 mph - N/A   Clear
1:30 AM 50.0 °F - 46.4 °F 87% 30.30 in - South 3.5 mph - N/A   Clear
2:00 AM 48.2 °F - 46.4 °F 93% 30.30 in - South 4.6 mph - N/A   Clear
2:30 AM 48.2 °F - 44.6 °F 87% 30.30 in - Calm Calm - N/A   Clear
3:00 AM 46 °F - 44 °F 88% 30.32 in 6 mi Calm Calm - -  
3:00 AM 46.4 °F - 44.6 °F 93% 30.27 in - Calm Calm - N/A   Clear
3:30 AM 48.2 °F - 44.6 °F 87% 30.27 in - South 1.2 mph - N/A   Clear
4:00 AM 46.4 °F - 44.6 °F 93% 30.27 in - NE 2.3 mph - N/A   Clear
4:30 AM 44.6 °F 43.1 °F 41.0 °F 87% 30.27 in - North 3.5 mph - N/A   Clear
5:00 AM 46.4 °F 45.2 °F 42.8 °F 87% 30.27 in - NNE 3.5 mph - N/A   Clear
5:30 AM 44.6 °F - 42.8 °F 93% 30.27 in - Variable 2.3 mph - N/A   Clear
6:00 AM 45 °F - 43 °F 88% 30.31 in 6 mi SE 5.8 mph - -  
6:00 AM 46.4 °F 44.3 °F 42.8 °F 87% 30.27 in - ESE 4.6 mph - N/A   Clear
6:30 AM 46.4 °F 42.9 °F 42.8 °F 87% 30.27 in - SE 6.9 mph - N/A   Clear
7:00 AM 44.6 °F 42.2 °F 39.2 °F 81% 30.27 in - East 4.6 mph - N/A   Clear
7:30 AM 42.8 °F 40.1 °F 39.2 °F 87% 30.27 in - East 4.6 mph - N/A   Clear
8:00 AM 44.6 °F 41.4 °F 42.8 °F 93% 30.30 in - NE 5.8 mph - N/A   Clear
8:30 AM 50.0 °F - 44.6 °F 82% 30.30 in - East 2.3 mph - N/A   Clear
9:00 AM 50.0 °F - 44.6 °F 82% 30.30 in 3.7 mi East 5.8 mph - N/A   Partly Cloudy
9:30 AM 53.6 °F - 46.4 °F 77% 30.33 in 4.3 mi NE 4.6 mph - N/A   Partly Cloudy
10:00 AM 55.4 °F - 46.4 °F 72% 30.33 in 5.6 mi NE 4.6 mph - N/A   Partly Cloudy
10:30 AM 59.0 °F - 48.2 °F 67% 30.33 in 6.2 mi NNE 4.6 mph - N/A   Partly Cloudy
11:00 AM 60.8 °F - 48.2 °F 63% 30.33 in 6.2 mi North 3.5 mph - N/A   Partly Cloudy
11:30 AM 62.6 °F - 48.2 °F 59% 30.33 in 6.2 mi NNE 5.8 mph - N/A   Partly Cloudy
12:00 PM 63 °F - 48 °F 47% 30.29 in 6 mi NE 8.1 mph - -   Scattered Clouds
12:00 PM 62.6 °F - 48.2 °F 59% 30.30 in 6.2 mi NE 8.1 mph - N/A   Partly Cloudy
12:30 PM 64.4 °F - 48.2 °F 56% 30.30 in 6.2 mi NE 9.2 mph - N/A   Partly Cloudy
1:00 PM 64.4 °F - 50.0 °F 59% 30.27 in 6.2 mi North 10.4 mph - N/A   Partly Cloudy
1:30 PM 66.2 °F - 48.2 °F 52% 30.27 in 6.2 mi NE 8.1 mph - N/A   Partly Cloudy
2:00 PM 68.0 °F - 46.4 °F 46% 30.27 in - NE 10.4 mph - N/A   Clear
2:30 PM 69.8 °F - 44.6 °F 40% 30.24 in - NE 9.2 mph - N/A   Clear
3:00 PM 70 °F - 44 °F 28% 30.20 in 6 mi North 9.2 mph - -   Clear
3:00 PM 69.8 °F - 44.6 °F 40% 30.24 in - North 8.1 mph - N/A   Clear
3:30 PM 69.8 °F - 42.8 °F 38% 30.24 in - NE 8.1 mph - N/A   Clear
4:00 PM 69.8 °F - 42.8 °F 38% 30.21 in - ENE 9.2 mph - N/A   Clear
4:30 PM 71.6 °F - 41.0 °F 33% 30.21 in - ENE 9.2 mph - N/A   Clear
5:00 PM 69.8 °F - 41.0 °F 35% 30.21 in - East 10.4 mph - N/A   Clear
5:30 PM 69.8 °F - 41.0 °F 35% 30.21 in - East 6.9 mph - N/A   Clear
6:00 PM 67 °F - 40 °F 26% 30.18 in 6 mi ENE 4.6 mph - -   Clear
6:00 PM 68.0 °F - 41.0 °F 37% 30.21 in - ENE 4.6 mph - N/A   Clear
7:00 PM 60.8 °F - 41.0 °F 48% 30.21 in - Calm Calm - N/A   Clear
7:30 PM 60.8 °F - 33.8 °F 36% 30.24 in - NNE 9.2 mph - N/A   Clear
8:00 PM 59.0 °F - 33.8 °F 39% 30.24 in - NE 6.9 mph - N/A   Clear
8:30 PM 57.2 °F - 35.6 °F 44% 30.24 in - East 4.6 mph - N/A   Clear
9:00 PM 59 °F - 34 °F 27% 30.24 in 6 mi NE 6.9 mph - -   Clear
9:00 PM 57.2 °F - 35.6 °F 44% 30.24 in - East 4.6 mph - N/A   Clear
9:30 PM 55.4 °F - 48.2 °F 77% 30.27 in - NE 9.2 mph - N/A   Clear
10:00 PM 55.4 °F - 48.2 °F 77% 30.27 in - NE 9.2 mph - N/A   Clear
10:30 PM 51.8 °F - 48.2 °F 88% 30.27 in - ENE 6.9 mph - N/A   Clear
11:00 PM 51.8 °F - 46.4 °F 82% 30.27 in - ENE 6.9 mph - N/A   Clear
11:30 PM 51.8 °F - 46.4 °F 82% 30.27 in - ESE 4.6 mph - N/A   Clear